Wind_Speed
127 128 125 115 108 105 107 102 99 95 104 105 103 100 96 96 88 82 78 75 75 76 77 73 60 65 65 59 57 55 50 50 49 46 44 44 41 40 43 41 41 43 44 43
132 129 118 120 113 109 109 104 96 97 101 107 110 105 100 97 90 86 83 78 78 78 79 77 73 67 64 64 60 58 57 53 49 48 48 47 45 44 46 48 49 48 45 47
125 113 121 118 110 107 104 101 95 97 108 111 114 109 104 99 93 89 87 81 77 80 83 83 73 69 68 64 61 61 60 59 54 53 52 52 51 51 54 53 51 51 52 52
116 110 114 114 102 100 100 98 96 105 111 112 115 108 107 100 94 86 86 84 80 83 85 82 78 70 68 66 67 63 62 60 56 58 58 59 62 60 58 55 55 57 54 56
101 107 109 106 94 100 96 101 99 107 112 118 114 110 104 105 96 87 86 86 86 86 88 85 83 77 73 71 71 69 68 66 66 64 62 63 63 63 61 58 60 60 63 62
98 104 105 98 96 100 99 101 104 110 113 120 108 112 110 107 95 92 89 89 91 92 88 88 88 86 82 79 77 79 77 74 68 65 65 65 65 67 66 65 63 60 60 62
93 98 96 97 96 100 101 100 104 110 113 117 111 116 105 105 102 95 92 91 93 93 93 89 88 90 89 88 87 84 79 77 75 69 64 63 67 67 65 66 63 62 59 61
94 95 90 88 93 91 97 98 104 108 108 109 121 115 102 105 105 100 97 95 95 95 95 93 91 89 87 88 87 88 82 77 72 69 64 67 67 65 65 62 61 63 61 60
86 87 87 91 87 96 98 104 101 108 110 120 121 111 109 110 106 104 101 99 99 98 96 93 91 88 87 85 84 83 79 75 72 69 67 66 65 65 67 65 63 65 64 67
84 86 90 86 94 99 102 101 106 112 118 122 127 114 108 112 111 105 104 101 103 102 99 94 93 92 87 86 84 84 80 74 71 73 71 69 69 67 69 69 64 62 66 68
89 88 87 91 95 93 99 105 111 115 122 125 114 110 104 116 116 107 103 107 105 103 100 96 94 92 91 89 88 87 85 82 81 79 78 78 77 74 71 67 62 62 64 64
92 95 91 92 92 97 102 106 111 120 122 124 122 110 104 116 119 110 108 108 107 106 103 100 99 97 94 91 91 88 87 85 85 86 84 82 82 77 72 70 67 67 65 63
93 93 92 93 96 99 102 103 109 115 119 125 126 104 103 111 124 120 112 112 111 110 106 105 104 101 98 95 94 93 91 89 88 88 86 83 80 77 73 73 71 69 67 67
90 92 92 90 91 98 104 107 112 116 121 122 123 109 105 110 119 126 119 114 115 113 111 109 109 106 103 100 98 98 94 92 91 89 87 86 82 81 79 77 75 72 72 71
87 87 90 89 97 102 104 104 110 115 118 124 117 110 105 111 114 123 127 116 116 115 113 111 110 110 106 104 101 100 100 98 95 91 88 89 87 84 82 81 79 78 78 78
82 89 90 89 94 100 102 104 108 112 113 120 120 113 104 108 116 116 127 126 117 114 115 118 115 113 109 109 106 103 102 101 100 97 91 88 87 86 84 83 83 83 82 81
70 77 86 90 96 99 101 93 103 106 110 117 124 112 110 111 111 119 128 130 124 114 117 122 119 117 114 112 112 110 109 106 103 101 99 96 93 90 88 87 88 87 86 85
67 73 79 81 90 98 89 96 99 102 105 113 117 111 106 111 118 121 115 126 134 133 128 120 122 122 121 120 118 115 112 109 107 104 102 102 99 95 94 93 92 92 92 91
63 67 72 76 83 84 88 89 97 100 98 107 107 109 109 114 120 105 107 121 133 140 137 131 124 121 124 125 122 117 114 110 108 106 104 105 104 102 100 98 98 98 97 97
60 63 68 70 78 77 73 92 93 96 87 99 101 103 109 116 114 108 119 114 118 128 137 138 134 129 123 123 126 121 115 113 110 110 110 110 108 107 105 103 102 102 102 103
60 61 63 68 74 66 74 87 94 94 75 89 97 99 102 108 111 116 118 118 116 119 125 135 137 134 130 124 127 124 123 117 116 117 117 116 114 112 111 110 109 109 110 110
61 62 60 66 67 54 73 82 92 93 83 89 94 93 93 97 102 109 116 118 121 118 119 124 136 138 136 134 127 122 123 120 123 122 121 120 118 117 117 117 117 117 117 118
60 63 61 60 53 61 70 77 82 86 88 88 93 94 89 90 95 99 105 110 117 118 115 120 121 125 134 138 132 126 118 120 122 125 126 127 124 124 123 123 123 123 123 122
62 61 59 61 50 65 66 70 78 83 88 91 91 94 94 91 94 96 97 100 105 111 113 113 117 118 123 130 135 133 124 121 122 124 124 123 122 121 119 119 122 125 127 129
66 67 64 58 58 60 65 66 71 79 83 87 92 92 94 94 95 95 95 96 97 97 102 106 110 114 117 123 129 133 132 127 127 127 129 129 131 132 131 131 130 127 129 130
73 72 69 61 61 60 64 68 65 66 73 82 88 92 93 95 96 97 98 99 98 97 98 99 99 101 107 113 120 126 130 132 130 131 131 131 134 137 139 133 129 127 129 134
Wind_Direction
255 254 253 254 252 250 249 245 242 238 234 231 229 222 223 230 233 234 232 235 239 240 242 244 244 239 243 243 246 246 247 247 250 257 264 266 270 270 273 270 268 278 285 284
250 250 252 251 247 247 245 243 239 236 236 231 227 221 219 227 230 234 234 231 236 240 242 244 247 243 237 243 245 245 246 247 249 254 262 267 263 265 269 275 279 283 283 280
247 247 245 246 245 243 242 241 236 235 233 230 226 221 217 223 226 230 235 235 233 241 243 245 245 243 241 245 249 250 249 250 249 253 261 263 259 267 273 275 277 275 280 281
242 241 244 246 242 239 237 237 231 230 231 230 225 219 216 221 224 228 234 234 234 236 243 248 248 246 242 244 248 251 252 248 247 258 264 263 263 267 269 270 274 273 276 279
241 240 239 240 239 238 234 231 229 227 229 230 226 219 216 220 222 224 230 233 233 235 238 244 247 248 247 247 250 252 256 253 256 258 257 258 259 262 266 268 271 273 276 279
235 237 238 238 234 232 231 228 226 226 227 231 224 221 211 220 219 222 227 231 234 236 237 239 243 246 248 247 248 253 253 252 254 255 254 256 257 264 266 268 270 271 273 274
237 237 236 236 232 231 229 228 226 226 226 228 225 222 206 220 219 221 225 229 233 237 239 239 242 245 248 249 251 254 252 253 258 260 257 256 260 263 264 267 267 270 272 276
231 232 232 233 231 229 228 227 226 227 229 229 226 221 208 215 222 219 224 226 230 233 237 239 241 244 246 250 252 254 256 256 257 259 260 260 262 263 263 268 266 268 272 275
231 231 231 229 227 226 227 227 223 224 227 229 228 220 209 211 221 221 222 226 230 231 234 237 239 242 245 247 250 253 254 256 258 258 260 261 259 262 264 266 271 271 272 271
229 228 228 223 225 227 227 226 222 224 223 228 228 222 208 211 219 222 224 226 228 230 232 235 238 241 242 245 247 250 250 251 252 257 260 259 260 263 268 269 271 269 269 270
227 228 226 225 225 224 226 226 225 225 226 227 229 225 217 212 216 221 222 228 230 232 232 234 237 240 241 243 245 248 249 250 252 253 255 259 261 265 267 269 266 266 269 271
227 225 223 225 223 224 225 225 225 225 227 228 228 223 222 213 215 220 223 224 230 232 232 232 234 236 239 242 244 245 247 249 251 254 256 258 261 263 266 268 269 270 270 272
230 231 227 226 224 224 225 227 227 229 229 229 230 220 222 221 214 217 222 223 226 231 233 235 235 236 237 239 242 245 246 247 250 253 255 257 260 262 263 266 269 272 272 272
232 232 233 229 227 225 226 226 228 228 230 232 232 225 221 225 217 217 220 223 225 228 231 234 236 237 238 239 242 244 246 248 250 253 255 258 258 259 261 263 266 269 270 271
236 236 235 231 228 229 229 229 228 230 231 233 233 231 223 227 225 221 219 223 225 227 230 235 237 239 239 239 241 244 246 247 249 252 255 258 259 260 262 263 264 266 269 271
237 238 238 234 233 233 234 232 232 233 233 235 236 234 230 228 231 224 225 224 227 228 231 233 236 239 240 241 241 242 244 247 249 250 250 253 258 260 261 263 264 266 268 269
240 240 240 239 236 235 236 236 236 235 233 235 236 234 232 233 233 232 227 225 224 229 234 234 234 237 240 242 243 243 244 245 247 250 251 252 253 255 258 261 264 266 267 268
244 243 242 239 238 237 237 236 237 238 237 237 238 235 233 235 236 235 231 225 225 230 234 236 237 236 238 239 241 243 245 247 248 250 252 253 254 254 256 259 261 263 265 266
243 245 244 243 241 237 235 238 239 240 237 239 240 238 234 235 237 235 236 234 226 230 233 236 238 240 240 240 241 243 245 247 250 253 254 255 256 256 256 258 259 262 264 266
240 243 244 243 243 239 233 237 239 241 239 242 242 240 237 238 238 235 240 238 233 231 232 234 238 241 242 244 243 242 244 247 250 253 254 255 258 259 259 260 262 263 265 266
245 245 245 244 243 238 236 236 239 241 240 242 241 239 239 240 239 238 240 242 238 237 235 235 238 241 241 244 247 246 246 246 246 248 251 253 254 256 258 259 261 262 262 263
246 248 249 248 247 240 240 238 240 241 238 240 243 242 240 241 241 239 241 241 243 240 237 237 237 239 240 242 246 248 248 247 248 248 249 252 254 256 258 259 260 262 263 265
247 251 250 252 250 243 239 240 239 242 243 239 241 243 242 240 242 242 241 242 244 245 242 241 241 241 242 243 244 247 248 248 250 251 251 250 253 255 256 258 260 262 264 265
248 251 253 252 250 244 240 240 241 240 241 243 242 243 243 242 242 243 243 244 244 244 245 245 245 243 243 245 246 246 247 251 252 251 252 253 254 256 259 261 264 265 265 265
249 251 252 250 248 249 246 243 242 242 242 243 245 244 242 244 244 244 244 244 244 244 245 248 249 247 246 246 246 246 246 248 252 253 252 254 256 259 263 266 267 268 267 267
248 250 252 251 248 247 251 247 245 246 245 242 243 245 246 245 245 245 246 248 248 246 246 247 247 249 249 247 247 248 248 249 253 254 255 258 259 261 262 266 268 268 268 266
Height
10547 10548 10565 10591 10608 10612 10616 10634 10652 10666 10663 10685 10701 10714 10720 10724 10745 10757 10764 10773 10783 10790 10793 10798 10809 10814 10817 10819 10820 10824 10828 10830 10833 10834 10834 10836 10837 10838 10836 10837 10837 10836 10836 10836
10505 10521 10563 10554 10570 10581 10591 10609 10632 10634 10646 10664 10671 10692 10704 10709 10734 10744 10750 10760 10769 10776 10780 10788 10796 10800 10804 10806 10810 10814 10815 10821 10823 10825 10826 10828 10827 10827 10827 10827 10828 10829 10828 10827
10483 10525 10506 10521 10544 10556 10571 10590 10608 10618 10617 10636 10647 10674 10688 10696 10715 10728 10739 10750 10758 10762 10765 10774 10782 10788 10793 10798 10799 10802 10806 10810 10813 10814 10817 10817 10817 10817 10818 10818 10820 10819 10818 10817
10459 10491 10489 10502 10526 10538 10552 10571 10583 10588 10593 10612 10622 10664 10675 10684 10702 10723 10726 10738 10744 10747 10749 10757 10767 10776 10781 10784 10783 10791 10795 10798 10800 10802 10805 10804 10805 10807 10806 10809 10808 10808 10808 10807
10459 10464 10468 10481 10516 10513 10544 10539 10559 10564 10574 10582 10602 10635 10676 10664 10689 10709 10713 10720 10727 10731 10735 10743 10750 10759 10765 10769 10774 10778 10780 10785 10787 10789 10790 10791 10793 10792 10795 10798 10796 10797 10797 10795
10435 10439 10450 10480 10484 10490 10511 10517 10529 10540 10553 10550 10599 10612 10646 10652 10680 10684 10695 10702 10706 10712 10719 10728 10734 10742 10749 10752 10756 10759 10763 10767 10771 10775 10776 10779 10780 10780 10783 10784 10784 10784 10785 10783
10421 10427 10441 10454 10463 10474 10488 10502 10513 10518 10525 10538 10575 10578 10647 10641 10656 10669 10676 10683 10688 10695 10704 10711 10717 10723 10730 10735 10740 10744 10749 10755 10758 10763 10765 10767 10767 10767 10769 10770 10772 10771 10772 10771
10386 10399 10426 10448 10450 10469 10473 10488 10494 10503 10516 10539 10536 10558 10627 10631 10630 10650 10655 10661 10668 10676 10681 10693 10696 10705 10714 10717 10724 10728 10734 10738 10743 10749 10751 10751 10752 10754 10755 10756 10758 10757 10760 10759
10375 10393 10406 10412 10436 10433 10453 10453 10483 10481 10495 10504 10519 10558 10593 10615 10614 10628 10635 10642 10649 10657 10662 10673 10680 10689 10696 10702 10708 10711 10716 10721 10728 10731 10733 10736 10737 10739 10738 10741 10743 10746 10747 10743
10363 10376 10380 10400 10400 10412 10426 10447 10451 10455 10467 10474 10499 10533 10576 10591 10598 10611 10619 10624 10624 10634 10644 10653 10663 10670 10678 10684 10690 10696 10699 10702 10707 10713 10716 10718 10721 10723 10724 10727 10729 10729 10728 10729
10342 10357 10368 10375 10387 10407 10411 10422 10430 10442 10446 10461 10492 10518 10560 10572 10581 10596 10602 10605 10612 10619 10627 10637 10645 10651 10657 10666 10672 10676 10682 10685 10689 10694 10697 10701 10704 10707 10709 10712 10712 10713 10714 10716
10325 10329 10344 10358 10373 10379 10389 10402 10408 10412 10430 10447 10463 10496 10530 10553 10563 10573 10580 10587 10591 10599 10607 10613 10621 10629 10636 10644 10650 10656 10661 10667 10670 10674 10681 10684 10687 10691 10694 10696 10695 10697 10700 10701
10310 10322 10335 10345 10352 10363 10374 10393 10397 10407 10417 10425 10440 10487 10515 10525 10539 10550 10558 10566 10569 10576 10585 10592 10602 10611 10615 10622 10628 10635 10642 10647 10651 10656 10662 10667 10672 10676 10678 10678 10680 10683 10685 10685
10296 10306 10318 10339 10351 10347 10352 10369 10377 10384 10391 10413 10422 10468 10501 10507 10522 10528 10533 10539 10548 10556 10560 10569 10576 10589 10597 10604 10609 10616 10624 10630 10635 10640 10645 10651 10656 10658 10660 10662 10665 10667 10667 10670
10284 10297 10304 10322 10323 10328 10341 10360 10363 10368 10385 10385 10420 10441 10486 10489 10497 10504 10515 10525 10529 10536 10547 10554 10560 10566 10579 10586 10593 10598 10604 10611 10616 10625 10629 10632 10636 10641 10645 10647 10648 10649 10650 10650
10273 10281 10288 10304 10311 10316 10324 10339 10349 10360 10380 10381 10400 10420 10463 10475 10467 10494 10493 10495 10513 10526 10529 10528 10534 10542 10554 10563 10572 10579 10584 10591 10599 10607 10612 10616 10619 10623 10627 10629 10630 10631 10632 10632
10262 10267 10273 10286 10291 10296 10305 10341 10333 10346 10356 10367 10369 10411 10435 10444 10455 10446 10451 10481 10503 10508 10501 10504 10514 10523 10533 10540 10545 10555 10557 10568 10577 10586 10592 10598 10602 10606 10609 10610 10611 10612 10613 10614
10248 10250 10253 10266 10270 10276 10315 10311 10319 10325 10339 10342 10356 10391 10418 10419 10408 10412 10452 10477 10475 10466 10473 10486 10493 10498 10501 10506 10514 10528 10538 10549 10559 10567 10574 10577 10581 10585 10588 10591 10593 10594 10594 10595
10233 10234 10239 10245 10251 10272 10293 10305 10296 10302 10322 10322 10344 10369 10387 10374 10362 10430 10443 10420 10439 10441 10455 10461 10467 10471 10477 10487 10499 10513 10522 10532 10542 10552 10556 10555 10558 10562 10565 10569 10571 10572 10574 10575
10217 10219 10222 10232 10234 10252 10290 10273 10278 10280 10306 10304 10318 10340 10343 10348 10375 10406 10378 10403 10415 10416 10427 10433 10437 10444 10458 10469 10473 10488 10505 10516 10529 10530 10527 10529 10535 10539 10544 10545 10547 10550 10552 10552
10203 10208 10215 10215 10219 10252 10256 10252 10252 10259 10304 10292 10292 10306 10316 10327 10349 10359 10363 10373 10382 10390 10405 10409 10413 10423 10439 10438 10441 10465 10476 10495 10502 10498 10499 10503 10510 10515 10518 10520 10523 10523 10525 10525
10192 10195 10203 10204 10214 10250 10232 10231 10234 10244 10268 10270 10271 10283 10301 10311 10320 10335 10342 10348 10349 10363 10376 10380 10389 10397 10408 10411 10418 10432 10449 10469 10468 10474 10475 10480 10485 10490 10494 10495 10496 10497 10498 10499
10184 10184 10191 10197 10217 10214 10215 10217 10222 10229 10238 10249 10251 10259 10274 10289 10295 10305 10316 10323 10329 10336 10351 10356 10364 10375 10385 10387 10392 10405 10426 10426 10438 10445 10447 10449 10456 10462 10467 10468 10469 10470 10470 10473
10171 10174 10182 10180 10200 10185 10196 10202 10203 10209 10215 10221 10231 10241 10248 10263 10271 10277 10286 10297 10306 10316 10323 10330 10340 10352 10362 10362 10368 10382 10394 10398 10407 10417 10421 10421 10424 10431 10435 10437 10438 10439 10441 10444
10157 10157 10161 10171 10174 10175 10172 10181 10185 10189 10199 10205 10209 10217 10226 10236 10247 10256 10264 10272 10281 10291 10297 10303 10312 10323 10334 10339 10345 10354 10367 10372 10376 10385 10392 10395 10398 10400 10401 10402 10406 10408 10410 10411
10140 10141 10144 10155 10155 10159 10156 10157 10170 10177 10178 10186 10190 10193 10203 10212 10223 10231 10240 10247 10257 10266 10274 10280 10288 10296 10305 10314 10323 10333 10339 10345 10350 10356 10360 10362 10366 10369 10371 10372 10373 10377 10378 10380